Location: Indian Springs
(36.5700°N, 115.6700°W)
Time: 05:04:34
(UTC-07:00)

Amateur Radio Satellites - All Passes

Search period start: 21 August 2014 04:34
Search period end: 22 August 2014 04:34
Location: Indian Springs, 36.5700°N, 115.6700°W

Satellite Date Start Highest point End Downlink Frequencies (MHz)
Time Altitude Azimuth
SO-50 21 Aug 05:01:37 05:04:07 15° 108° (ESE) 05:06:39 436.795 FM
OPAL 21 Aug 05:02:15 05:06:35 30° 261° (W) 05:11:00 ?
Sapphire 21 Aug 05:09:50 05:15:10 60° 247° (WSW) 05:20:29 437.095 MHz 1200 baud AX-25 AFSK
AO-7 21 Aug 05:11:00 05:19:20 78° 106° (ESE) 05:27:36 29.400 - 29.500 MHz
Uosat F 21 Aug 05:14:42 05:19:42 78° 285° (WNW) 05:24:41 435.120 FM
TMSAT-1 21 Aug 05:23:30 05:26:10 14° 297° (WNW) 05:28:50 436.925 FM
PCSat 21 Aug 05:41:03 05:45:39 29° 252° (WSW) 05:50:14 145.825 MHz
JAS-2 21 Aug 05:47:34 05:51:07 18° 94° (E) 05:54:44 435.800 - 435.900 CW/SSB, 435.910 FM
STRAND 1 21 Aug 06:27:53 06:32:54 60° 73° (ENE) 06:37:56 ?
SO-50 21 Aug 06:39:54 06:44:12 49° 304° (NW) 06:48:38 436.795 FM
Hamsat 21 Aug 06:53:55 06:58:16 67° 284° (WNW) 07:02:34 145.90 MHz
AO-7 21 Aug 07:05:16 07:11:13 23° 304° (NW) 07:17:10 29.400 - 29.500 MHz
SO-67 21 Aug 07:09:21 07:12:00 20° 95° (E) 07:14:39 435.3500 MHz FM
RS-15 21 Aug 07:12:54 07:17:36 14° 98° (E) 07:22:13 29.354 - 29.394 USB, Beacon 29.352 USB
JAS-2 21 Aug 07:31:35 07:36:26 42° 288° (WNW) 07:41:25 435.800 - 435.900 CW/SSB, 435.910 FM
UOSAT-12 21 Aug 07:57:33 08:02:07 78° 118° (ESE) 08:06:49 437.025 FM, 437.400 FM
STRAND 1 21 Aug 08:09:56 08:12:26 14° 268° (W) 08:14:57 ?
HO-68 21 Aug 08:42:25 08:47:55 24° 95° (E) 08:53:24 435.675 MHz FM
SO-67 21 Aug 08:42:30 08:44:55 18° 289° (WNW) 08:47:19 435.3500 MHz FM
KITSAT 1 21 Aug 08:45:59 08:51:03 17° 38° (NE) 08:56:05 435.175 FM
RS-15 21 Aug 09:16:54 09:28:01 76° 116° (ESE) 09:38:53 29.354 - 29.394 USB, Beacon 29.352 USB
UKube-1 21 Aug 09:29:27 09:33:08 27° 97° (E) 09:36:49 145.840 MHz, 145.915 MHz
UOSAT-12 21 Aug 09:40:32 09:42:51 14° 316° (NW) 09:45:12 437.025 FM, 437.400 FM
Oscar 11 21 Aug 09:46:40 09:50:20 26° 96° (E) 09:53:59 145.825 FM, Beacon 2401.500 USB
Saudisat 1A 21 Aug 09:57:13 10:01:30 47° 56° (NE) 10:05:44 436.775 MHz
HO-68 21 Aug 10:28:58 10:35:57 58° 290° (WNW) 10:42:54 435.675 MHz FM
KITSAT 1 21 Aug 10:39:52 10:47:57 72° 60° (ENE) 10:55:59 435.175 FM
UKube-1 21 Aug 11:05:47 11:09:12 23° 291° (WNW) 11:12:36 145.840 MHz, 145.915 MHz
FUNcube-1 21 Aug 11:19:08 11:23:33 71° 284° (WNW) 11:28:03 145.950 - 145.970 MHz USB
Oscar 11 21 Aug 11:22:53 11:26:23 24° 291° (WNW) 11:29:53 145.825 FM, Beacon 2401.500 USB
RS-15 21 Aug 11:31:53 11:41:22 32° 319° (NW) 11:50:50 29.354 - 29.394 USB, Beacon 29.352 USB
Saudisat 1A 21 Aug 11:38:10 11:40:39 15° 251° (WSW) 11:43:07 436.775 MHz
Oscar 19 21 Aug 12:19:15 12:22:27 17° 64° (ENE) 12:25:39 437.125 CW, 437.150 USB
KITSAT 1 21 Aug 12:36:49 12:42:31 22° 257° (WSW) 12:48:13 435.175 FM
Uribyol 2 21 Aug 12:42:00 12:44:13 13° 62° (ENE) 12:46:26 436.500 FM
Oscar 16 21 Aug 12:50:35 12:55:12 35° 70° (ENE) 12:59:52 437.025 USB, Beacon 2401.1428
AO-27 21 Aug 12:54:28 12:57:40 17° 64° (ENE) 13:00:52 436.795 MHz FM
JAS-1B 21 Aug 12:58:02 13:06:08 31° 62° (ENE) 13:13:54 435.800 - 435.900 CW/SSB
ISS 21 Aug 13:10:05 13:12:51 25° 131° (SE) 13:15:38 145.800 FM
SO-50 21 Aug 13:35:57 13:36:54 11° 41° (NE) 13:37:52 436.795 FM
RS-15 21 Aug 13:53:59 13:58:53 14° 353° (N) 14:03:49 29.354 - 29.394 USB, Beacon 29.352 USB
Oscar 19 21 Aug 13:56:18 14:01:18 54° 260° (W) 14:06:22 437.125 CW, 437.150 USB
Gurwin Techsat 1B 21 Aug 14:02:22 14:07:00 32° 69° (ENE) 14:11:39 435.225 FM
ITAMSAT 1 21 Aug 14:05:12 14:10:23 80° 75° (ENE) 14:15:34 435.822 SSB
AO-Echo 21 Aug 14:05:18 14:10:32 87° 76° (ENE) 14:15:37 ?
Uribyol 2 21 Aug 14:17:54 14:23:03 72° 258° (WSW) 14:28:13 436.500 FM
AO-7 21 Aug 14:18:43 14:23:38 17° 53° (NE) 14:28:32 29.400 - 29.500 MHz
Oscar 16 21 Aug 14:30:29 14:34:35 24° 265° (W) 14:38:43 437.025 USB, Beacon 2401.1428
AO-27 21 Aug 14:31:37 14:36:42 55° 259° (W) 14:41:48 436.795 MHz FM
JAS-1B 21 Aug 14:46:00 14:55:50 70° 258° (WSW) 15:05:25 435.800 - 435.900 CW/SSB
ISS 21 Aug 14:46:33 14:49:30 29° 327° (NNW) 14:52:28 145.800 FM
Uosat F 21 Aug 14:50:24 14:52:20 12° 62° (ENE) 14:54:16 435.120 FM
TMSAT-1 21 Aug 14:59:52 15:05:09 82° 76° (ENE) 15:10:28 436.925 FM
MaSat-1 21 Aug 15:01:52 15:06:17 49° 108° (ESE) 15:11:10 437.345 MHz
SO-50 21 Aug 15:13:28 15:18:16 74° 59° (ENE) 15:23:06 436.795 FM
Gurwin Techsat 1B 21 Aug 15:42:24 15:46:55 28° 264° (W) 15:51:27 435.225 FM
AO-7 21 Aug 16:06:49 16:15:11 83° 71° (ENE) 16:23:33 29.400 - 29.500 MHz
RS-15 21 Aug 16:09:32 16:17:32 22° 31° (NNE) 16:25:41 29.354 - 29.394 USB, Beacon 29.352 USB
Uosat F 21 Aug 16:25:27 16:30:28 73° 257° (WSW) 16:35:29 435.120 FM
UOSAT-12 21 Aug 16:29:46 16:34:05 34° 53° (NE) 16:38:20 437.025 FM, 437.400 FM
MaSat-1 21 Aug 16:40:17 16:43:44 19° 307° (NW) 16:47:23 437.345 MHz
PANSAT 21 Aug 16:42:19 16:45:02 18° 168° (SSE) 16:47:44 not established
JAS-1B 21 Aug 16:43:15 16:47:29 13° 274° (W) 16:51:41 435.800 - 435.900 CW/SSB
SO-50 21 Aug 16:56:56 16:58:13 11° 253° (WSW) 16:59:30 436.795 FM
OPAL 21 Aug 17:13:36 17:18:50 86° 105° (ESE) 17:24:03 ?
JAS-2 21 Aug 17:39:40 17:46:22 58° 73° (ENE) 17:52:17 435.800 - 435.900 CW/SSB, 435.910 FM
Hamsat 21 Aug 17:44:33 17:48:44 62° 75° (ENE) 17:53:00 145.90 MHz
AO-7 21 Aug 18:03:28 18:08:43 18° 267° (W) 18:14:00 29.400 - 29.500 MHz
Sapphire 21 Aug 18:06:56 18:11:15 25° 107° (ESE) 18:15:36 437.095 MHz 1200 baud AX-25 AFSK
UOSAT-12 21 Aug 18:10:16 18:14:02 24° 249° (WSW) 18:17:45 437.025 FM, 437.400 FM
RS-15 21 Aug 18:21:14 18:32:20 70° 57° (ENE) 18:43:51 29.354 - 29.394 USB, Beacon 29.352 USB
PANSAT 21 Aug 18:21:33 18:24:42 24° 181° (S) 18:27:50 not established
PCSat 21 Aug 18:36:25 18:41:38 52° 112° (ESE) 18:46:53 145.825 MHz
STRAND 1 21 Aug 18:41:38 18:45:45 25° 96° (E) 18:49:52 ?
OPAL 21 Aug 18:55:21 18:56:57 11° 301° (WNW) 18:58:33 ?
HO-68 21 Aug 19:11:01 19:14:35 15° 56° (NE) 19:18:08 435.675 MHz FM
SO-67 21 Aug 19:11:59 19:15:27 84° 258° (WSW) 19:18:56 435.3500 MHz FM
JAS-2 21 Aug 19:26:42 19:31:34 21° 265° (W) 19:36:06 435.800 - 435.900 CW/SSB, 435.910 FM
Oscar 10/S400 21 Aug 19:30:55 19:49:31 58° 157° (SSE) 20:49:09 145.825 - 145.975 CW/USB, Beacon 145.810 USB
ISS 21 Aug 19:41:01 19:43:15 17° 27° (NNE) 19:45:29 145.800 FM
Sapphire 21 Aug 19:49:23 19:54:25 39° 303° (WNW) 19:59:30 437.095 MHz 1200 baud AX-25 AFSK
PANSAT 21 Aug 20:01:49 20:04:21 17° 194° (SSW) 20:06:52 not established
STRAND 1 21 Aug 20:20:24 20:24:57 34° 290° (WNW) 20:29:30 ?
PCSat 21 Aug 20:21:15 20:25:20 21° 309° (NW) 20:29:27 145.825 MHz
UKube-1 21 Aug 20:23:23 20:26:23 19° 67° (ENE) 20:29:23 145.840 MHz, 145.915 MHz
RS-15 21 Aug 20:34:46 20:43:46 30° 256° (WSW) 20:53:07 29.354 - 29.394 USB, Beacon 29.352 USB
Oscar 11 21 Aug 20:40:27 20:43:04 16° 67° (ENE) 20:45:42 145.825 FM, Beacon 2401.500 USB
HO-68 21 Aug 20:54:03 21:01:12 83° 73° (ENE) 21:08:23 435.675 MHz FM
ISS 21 Aug 21:16:58 21:20:16 66° 223° (SW) 21:23:34 145.800 FM
UKube-1 21 Aug 21:58:21 22:02:19 34° 262° (W) 22:06:18 145.840 MHz, 145.915 MHz
FUNcube-1 21 Aug 22:13:17 22:17:23 66° 76° (ENE) 22:21:32 145.950 - 145.970 MHz USB
Oscar 11 21 Aug 22:14:51 22:18:54 40° 262° (W) 22:22:59 145.825 FM, Beacon 2401.500 USB
HO-68 21 Aug 22:45:48 22:49:36 15° 269° (W) 22:53:25 435.675 MHz FM
KITSAT 1 21 Aug 23:17:39 23:18:50 10° 98° (E) 23:20:00 435.175 FM
Saudisat 1A 22 Aug 00:02:13 00:05:36 22° 111° (ESE) 00:09:01 436.775 MHz
MaSat-1 22 Aug 00:59:07 01:03:54 65° 64° (ENE) 01:08:02 437.345 MHz
KITSAT 1 22 Aug 01:04:46 01:12:47 71° 114° (ESE) 01:20:50 435.175 FM
Oscar 16 22 Aug 01:05:59 01:08:56 15° 92° (E) 01:11:51 437.025 USB, Beacon 2401.1428
Saudisat 1A 22 Aug 01:40:59 01:44:59 33° 307° (NW) 01:49:00 436.775 MHz
Oscar 19 22 Aug 02:10:15 02:15:26 66° 102° (ESE) 02:20:35 437.125 CW, 437.150 USB
AO-Echo 22 Aug 02:15:41 02:19:54 32° 97° (E) 02:24:04 ?
ITAMSAT 1 22 Aug 02:20:57 02:25:39 35° 98° (E) 02:30:20 435.822 SSB
Gurwin Techsat 1B 22 Aug 02:22:10 02:25:10 15° 92° (E) 02:28:09 435.225 FM
Uribyol 2 22 Aug 02:33:12 02:38:14 49° 100° (E) 02:43:15 436.500 FM
JAS-1B 22 Aug 02:37:37 02:44:25 42° 96° (E) 02:50:13 435.800 - 435.900 CW/SSB
Oscar 16 22 Aug 02:43:30 02:48:35 56° 287° (WNW) 02:53:39 437.025 USB, Beacon 2401.1428
AO-27 22 Aug 02:47:02 02:52:12 65° 102° (ESE) 02:57:20 436.795 MHz FM
OPAL 22 Aug 02:50:47 02:53:02 13° 60° (ENE) 02:55:19 ?
Sapphire 22 Aug 02:57:45 03:00:40 14° 46° (NE) 03:03:34 437.095 MHz 1200 baud AX-25 AFSK
KITSAT 1 22 Aug 03:02:15 03:08:51 27° 314° (NW) 03:15:30 435.175 FM
TMSAT-1 22 Aug 03:18:29 03:23:27 40° 98° (E) 03:28:23 436.925 FM
PCSat 22 Aug 03:27:10 03:31:42 26° 53° (NE) 03:36:11 145.825 MHz
Oscar 19 22 Aug 03:51:32 03:54:10 14° 297° (WNW) 03:56:48 437.125 CW, 437.150 USB
AO-Echo 22 Aug 03:54:51 03:58:29 22° 292° (WNW) 04:02:05 ?
Gurwin Techsat 1B 22 Aug 04:00:16 04:05:28 58° 287° (WNW) 04:10:39 435.225 FM
ITAMSAT 1 22 Aug 04:00:46 04:04:56 25° 293° (WNW) 04:09:06 435.822 SSB
AO-7 22 Aug 04:11:57 04:19:09 32° 98° (E) 04:26:16 29.400 - 29.500 MHz
Uribyol 2 22 Aug 04:13:49 04:17:17 18° 295° (WNW) 04:20:45 436.500 FM
AO-27 22 Aug 04:28:29 04:31:07 14° 297° (WNW) 04:33:46 436.795 MHz FM
